Weather Roundup
Issued by NWS

Home | Current Version | Previous Version | Graphics & Text | Print | Product List | Glossary Off
Versions: 1 2 3 4 5 6 7 8 9 10 11 12 13 14 15 16 17 18 19 20 21 22 23 24 25 26 27 28 29 30 31 32 33 34 35 36 37 38 39 40 41 42 43 44 45 46 47 48 49 50

000
NZUS93 KARX 131959
HRRWXR

CURRENT HOURLY OBSERVATIONS ACROSS
MUCH OF THE UPPER MISSISSIPPI VALLEY
NATIONAL WEATHER SERVICE LA CROSSE WI
300 PM CDT SUN JUL 13 2014


...SOUTHEAST MINNESOTA...


CITY           SKY/WX    TMP DP  RH WIND       PRES   REMARKS
ROCHESTER      SUNNY     75  52  44 W13G22    29.97F
ROCHESTER/MAYO FAIR      73  41  30 W15G25    29.95F
WINONA         SUNNY     77  50  38 NW9       29.93F
AUSTIN         NOT AVBL
ALBERT LEA     MOSUNNY   77  54  44 NW7G20    29.97F
DODGE CENTER   SUNNY     73  52  46 NW14G22   29.97S
PRESTON        SUNNY     74  54  49 NW17G23   29.97S
OWATONNA       MOSUNNY   75  52  43 W17G23    29.97F
FARIBAULT      MOSUNNY   79  46  31 W15       29.96F
$$

...ELSEWHERE IN MINNESOTA...


CITY           SKY/WX    TMP DP  RH WIND       PRES   REMARKS
MINNEAPOLIS    PTSUNNY   75  50  41 W13G24    29.93F
INTNL FALLS    LGT RAIN  57  52  83 NW15G31   29.82R
DULUTH         PTSUNNY   70  45  40 W17G24    29.85S
RED WING       SUNNY     77  46  33 NW13G18   29.92F
REDWOOD FALLS  MOSUNNY   79  55  43 NW20G26   29.95F
MANKATO        MOSUNNY   75  52  43 W13G20    29.96F
WORTHINGTON    MOSUNNY   79  55  44 NW16G25   30.01F
FAIRMONT       PTSUNNY   81  52  36 NW16      29.97F
$$

...SOUTHWEST WISCONSIN...


CITY           SKY/WX    TMP DP  RH WIND       PRES   REMARKS
LA CROSSE      SUNNY     80  51  36 NW13      29.91F
PRAIRIE DU CHI MOSUNNY   81  58  44 NW12      29.91F
BOSCOBEL       MOSUNNY   83  60  45 W13       29.90F
LONE ROCK      NOT AVBL
PLATTEVILLE    PTSUNNY   78  64  61 W12G17    29.94S
FORT MC COY    SUNNY     75  49  38 NW7       29.93F
VIROQUA        MOCLDY    75  58  56 NW14      29.94S
WIS DELLS      PTSUNNY   78  58  49 NW10G16   29.90F
$$

...ELSEWHERE IN WISCONSIN...


CITY           SKY/WX    TMP DP  RH WIND       PRES   REMARKS
MILWAUKEE      MOSUNNY   83  60  45 W15G22    29.87F
MADISON        MOSUNNY   82  60  47 W14G23    29.89F
GREEN BAY      SUNNY     79  46  31 W15       29.85F
EAU CLAIRE     NOT AVBL
BLACK RVR FLS  FAIR      76  44  30 W13       29.92F
MEDFORD        MOSUNNY   70  48  45 W8        29.91F
WAUSAU         SUNNY     74  45  35 W17G24    29.88F
WIS RAPIDS     SUNNY     77  46  33 W12G18    29.91F
MARSHFIELD     SUNNY     73  48  41 NW13      29.91F
RICE LAKE      MOSUNNY   70  47  44 W10       29.93F
$$

...NORTHEAST IOWA...


CITY           SKY/WX    TMP DP  RH WIND       PRES   REMARKS
WATERLOO       SUNNY     83  59  44 W16       29.94F
DUBUQUE        MOSUNNY   81  62  52 NW17G25   29.94F
DECORAH          N/A    N/A N/A N/A MISG        N/A
MASON CITY     SUNNY     80  57  45 NW12G22   29.99F
CHARLES CITY   SUNNY     79  59  50 NW13G22   29.97F
OELWEIN        MOSUNNY   81  64  57 NW15      29.96F
$$

...ELSEWHERE IN IOWA...


CITY           SKY/WX    TMP DP  RH WIND       PRES   REMARKS
DES MOINES     MOSUNNY   87  65  47 W8        29.96F
IOWA CITY      MOSUNNY   83  68  60 W10       29.96F
FORT DODGE     MOSUNNY   81  61  50 NW7       30.00S
MARSHALLTOWN   MOSUNNY   83  66  56 NW10G20   29.96F
CEDAR RAPIDS   MOSUNNY   83  66  56 W12       29.93F
$$

...NORTHERN ILLINOIS...


CITY           SKY/WX    TMP DP  RH WIND       PRES   REMARKS
CHICAGO-OHARE  MOSUNNY   83  60  45 W13       29.91S
DUPAGE         SUNNY     84  64  50 W12       29.92S
CHICAGO-MIDWAY MOSUNNY   85  58  39 W14       29.91F
MOLINE         MOSUNNY   84  66  54 W10       29.94F
ROCKFORD       MOSUNNY   83  65  54 W13       29.92F
STERLING       MOSUNNY   84  72  65 W10       29.94S
PEORIA         SUNNY     84  66  54 VRB3      29.96S
$$

NOTE: "FAIR" INDICATES FEW OR NO CLOUDS BELOW 12,000 FEET WITH NO
SIGNIFICANT WEATHER AND/OR OBSTRUCTIONS TO VISIBILITY. WIND
SPEEDS ARE IN MILES-PER-HOUR.



USA.gov is the U.S. government's official web portal to all federal, state and local government web resources and services.